Location: Lansingburgh
(42.7845°N, 73.6696°W)
Time: 07:15:31
(UTC+00:00)

ADEOS Rocket - Pass Details

Date: 24 January 2020
Orbit: 859 x 1306 km, 98.7° (Epoch: 17 February)

Event Time Altitude Azimuth Distance (km) Brightness Sun altitude
Rises 23:05:29 0° 22° (NNE) 3,857 5.8 -12.6°
Reaches altitude 10° 23:08:11 10° 31° (NNE) 2,963 5.1 -13.1°
Maximum altitude 23:14:24 37° 97° (E) 1,760 3.9 -14.2°
Drops below altitude 10° 23:21:06 10° 162° (SSE) 3,211 5.6 -15.4°
Sets 23:24:06 0° 170° (S) 4,217 6.3 -16.0°
